Location: Maiden
(35.5760°N, 81.2120°W)
Time: 02:50:09
(UTC-04:00)

Vanguard 2 - Pass Details

Date: 08 August 2020
Orbit: 553 x 2937 km, 32.9° (Epoch: 20 September)

Event Time Altitude Azimuth Distance (km) Brightness Sun altitude
Rises 03:47:32 0° 280° (W) 5,007 - -29.1°
Reaches altitude 10° 03:51:45 10° 273° (W) 3,588 - -28.6°
Maximum altitude 03:59:14 35° 212° (SSW) 1,597 - -27.6°
Drops below altitude 10° 04:04:10 10° 147° (SSE) 2,330 - -26.9°
Sets 04:06:22 0° 137° (SE) 3,069 - -26.6°
Exits shadow 04:06:25 - 137° (SE) 3,089 10.6 -26.6°
